Location: Fontevrault
(47.1823°N, 0.0493°E)
Time: 11:37:44
(UTC+00:00)

Uosat 12 SS-18 rocket - Visible Passes

Search period start: 23 October 2021 00:00
Search period end: 02 November 2021 00:00
Orbit: 581 x 1403 km, 64.6° (Epoch: 22 October)

Date Brightness Start Highest point End Pass type
(mag) Time Alt. Az. Time Alt. Az. Time Alt. Az.
23 Oct 6.6 18:16:25 10° W 18:20:59 25° NNW 18:26:22 10° NNE visible
23 Oct 7.1 20:07:28 10° NW 20:11:43 18° N 20:13:21 17° NNE visible
23 Oct 7.4 21:56:25 10° NNW 21:58:20 18° NNW 21:58:20 18° NNW visible
24 Oct 6.9 18:48:28 10° WNW 18:52:43 20° NNW 18:57:34 10° NNE visible
24 Oct 7.0 20:38:48 10° NNW 20:43:06 20° N 20:43:06 20° N visible
24 Oct 7.7 22:27:07 10° NNW 22:28:05 14° NNW 22:28:05 14° NNW visible
25 Oct 6.4 17:29:17 10° W 17:34:00 28° NNW 17:39:39 10° NNE visible
25 Oct 7.1 19:20:25 10° NW 19:24:36 18° N 19:27:53 13° NNE visible
25 Oct 7.1 21:09:46 10° NNW 21:12:52 21° N 21:12:52 21° N visible
25 Oct 7.9 22:57:47 10° NW 22:57:51 10° NW 22:57:51 10° NW visible
26 Oct 6.8 18:01:16 10° WNW 18:05:39 21° NNW 18:10:43 10° NNE visible
26 Oct 7.0 19:51:57 10° NW 19:56:31 19° N 19:57:39 18° NNE visible
26 Oct 7.3 21:40:30 10° NNW 21:42:38 20° NNW 21:42:38 20° NNW visible
27 Oct 7.0 18:33:18 10° NW 18:37:29 18° N 18:42:12 10° NE visible
27 Oct 6.9 20:23:03 10° NNW 20:27:26 22° N 20:27:26 22° N visible
27 Oct 7.6 22:11:09 10° NNW 22:12:24 16° NNW 22:12:24 16° NNW visible
28 Oct 6.6 17:14:04 10° WNW 17:18:36 24° NNW 17:23:56 10° NNE visible
28 Oct 7.0 19:05:01 10° NW 19:09:24 18° N 19:12:14 15° NNE visible
28 Oct 7.0 20:53:51 10° NNW 20:57:13 24° N 20:57:13 24° N visible
28 Oct 7.9 22:41:51 10° NW 22:42:12 12° NW 22:42:12 12° NW visible
29 Oct 6.9 17:46:08 10° NW 17:50:23 19° N 17:55:13 10° NNE visible
29 Oct 6.8 19:36:18 10° NNW 19:41:18 21° NNE 19:42:02 21° NNE visible
29 Oct 7.2 21:24:32 10° NNW 21:27:01 23° NNW 21:27:01 23° NNW visible
30 Oct 7.0 18:18:01 10° NW 18:22:17 18° N 18:26:51 11° NE visible
30 Oct 6.7 20:07:12 10° NNW 20:11:51 26° NNE 20:11:51 26° NNE visible
30 Oct 7.5 21:55:12 10° NW 21:56:50 18° NNW 21:56:50 18° NNW visible
31 Oct 6.9 18:49:29 10° NNW 18:54:12 20° NNE 18:56:42 17° NE visible
31 Oct 6.8 20:37:55 10° NNW 20:41:41 28° N 20:41:41 28° N visible
31 Oct 7.8 22:25:58 10° NW 22:26:40 13° NW 22:26:40 13° NW visible
01 Nov 6.9 17:30:56 10° NW 17:35:09 18° N 17:39:56 10° NE visible
01 Nov 6.7 19:20:30 10° NNW 19:26:01 24° NNE 19:26:33 24° NNE visible
01 Nov 7.0 21:08:35 10° NNW 21:11:32 27° NNW 21:11:32 27° NNW visible
